Year,Month,Day,Hour,Minute,Value (Times are PST for temperature in C)
2005,09,26,00,00,10.10
2005,09,26,00,01,10.10
2005,09,26,00,02,10.10
2005,09,26,00,03,10.10
2005,09,26,00,04,10.10
2005,09,26,00,05,10.10
2005,09,26,00,06,10.00
2005,09,26,00,07,9.90
2005,09,26,00,08,9.90
2005,09,26,00,09,9.90
2005,09,26,00,10,9.90
2005,09,26,00,11,9.90
2005,09,26,00,12,9.90
2005,09,26,00,13,9.80
2005,09,26,00,14,9.80
2005,09,26,00,15,9.80
2005,09,26,00,16,9.80
2005,09,26,00,17,9.80
2005,09,26,00,18,9.80
2005,09,26,00,19,9.80
2005,09,26,00,20,9.80
2005,09,26,00,21,9.80
2005,09,26,00,22,9.80
2005,09,26,00,23,9.80
2005,09,26,00,24,9.80
2005,09,26,00,25,9.80
2005,09,26,00,26,9.80
2005,09,26,00,27,9.70
2005,09,26,00,28,9.70
2005,09,26,00,29,9.70
2005,09,26,00,30,9.70
2005,09,26,00,31,9.70
2005,09,26,00,32,9.70
2005,09,26,00,33,9.70
2005,09,26,00,34,9.70
2005,09,26,00,35,9.70
2005,09,26,00,36,9.70
2005,09,26,00,37,9.70
2005,09,26,00,38,9.70
2005,09,26,00,39,9.70
2005,09,26,00,40,9.60
2005,09,26,00,41,9.60
2005,09,26,00,42,9.60
2005,09,26,00,43,9.60
2005,09,26,00,44,9.60
2005,09,26,00,45,9.60
2005,09,26,00,46,9.70
2005,09,26,00,47,9.70
2005,09,26,00,48,9.70
2005,09,26,00,49,9.60
2005,09,26,00,50,9.60
2005,09,26,00,51,9.60
2005,09,26,00,52,9.60
2005,09,26,00,53,9.50
2005,09,26,00,54,9.50
2005,09,26,00,55,9.50
2005,09,26,00,56,9.40
2005,09,26,00,57,9.40
2005,09,26,00,58,9.40
2005,09,26,00,59,9.40
2005,09,26,01,00,9.40
2005,09,26,01,01,9.40
2005,09,26,01,02,9.40
2005,09,26,01,03,9.40
2005,09,26,01,04,9.40
2005,09,26,01,05,9.40
2005,09,26,01,06,9.40
2005,09,26,01,07,9.40
2005,09,26,01,08,9.40
2005,09,26,01,09,9.40
2005,09,26,01,10,9.40
2005,09,26,01,11,9.40
2005,09,26,01,12,9.40
2005,09,26,01,13,9.40
2005,09,26,01,14,9.40
2005,09,26,01,15,9.40
2005,09,26,01,16,9.40
2005,09,26,01,17,9.30
2005,09,26,01,18,9.30
2005,09,26,01,19,9.30
2005,09,26,01,20,9.30
2005,09,26,01,21,9.20
2005,09,26,01,22,9.20
2005,09,26,01,23,9.20
2005,09,26,01,24,9.20
2005,09,26,01,25,9.20
2005,09,26,01,26,9.20
2005,09,26,01,27,9.20
2005,09,26,01,28,9.20
2005,09,26,01,29,9.20
2005,09,26,01,30,9.20
2005,09,26,01,31,9.20
2005,09,26,01,32,9.20
2005,09,26,01,33,9.20
2005,09,26,01,34,9.10
2005,09,26,01,35,9.10
2005,09,26,01,36,9.10
2005,09,26,01,37,9.00
2005,09,26,01,38,9.00
2005,09,26,01,39,9.00
2005,09,26,01,40,9.00
2005,09,26,01,41,9.00
2005,09,26,01,42,9.00
2005,09,26,01,43,8.90
2005,09,26,01,44,8.90
2005,09,26,01,45,8.90
2005,09,26,01,46,8.90
2005,09,26,01,47,8.90
2005,09,26,01,48,8.90
2005,09,26,01,49,8.90
2005,09,26,01,50,8.90
2005,09,26,01,51,8.90
2005,09,26,01,52,8.90
2005,09,26,01,53,9.00
2005,09,26,01,54,9.00
2005,09,26,01,55,9.00
2005,09,26,01,56,9.00
2005,09,26,01,57,9.00
2005,09,26,01,58,9.00
2005,09,26,01,59,9.00
2005,09,26,02,00,9.00
2005,09,26,02,01,9.00
2005,09,26,02,02,9.00
2005,09,26,02,03,9.00
2005,09,26,02,04,9.00
2005,09,26,02,05,9.00
2005,09,26,02,06,9.00
2005,09,26,02,07,8.90
2005,09,26,02,08,8.90
2005,09,26,02,09,8.90
2005,09,26,02,10,8.90
2005,09,26,02,11,8.90
2005,09,26,02,12,8.90
2005,09,26,02,13,8.90
2005,09,26,02,14,8.80
2005,09,26,02,15,8.80
2005,09,26,02,16,8.70
2005,09,26,02,17,8.70
2005,09,26,02,18,8.70
2005,09,26,02,19,8.70
2005,09,26,02,20,8.70
2005,09,26,02,21,8.70
2005,09,26,02,22,8.60
2005,09,26,02,23,8.60
2005,09,26,02,24,8.60
2005,09,26,02,25,8.60
2005,09,26,02,26,8.60
2005,09,26,02,27,8.60
2005,09,26,02,28,8.70
2005,09,26,02,29,8.70
2005,09,26,02,30,8.70
2005,09,26,02,31,8.70
2005,09,26,02,32,8.70
2005,09,26,02,33,8.70
2005,09,26,02,34,8.70
2005,09,26,02,35,8.70
2005,09,26,02,36,8.70
2005,09,26,02,37,8.70
2005,09,26,02,38,8.70
2005,09,26,02,39,8.70
2005,09,26,02,40,8.70
2005,09,26,02,41,8.70
2005,09,26,02,42,8.70
2005,09,26,02,43,8.70
2005,09,26,02,44,8.70
2005,09,26,02,45,8.70
2005,09,26,02,46,8.70
2005,09,26,02,47,8.60
2005,09,26,02,48,8.60
2005,09,26,02,49,8.60
2005,09,26,02,50,8.60
2005,09,26,02,51,8.50
2005,09,26,02,52,8.50
2005,09,26,02,53,8.50
2005,09,26,02,54,8.50
2005,09,26,02,55,8.50
2005,09,26,02,56,8.50
2005,09,26,02,57,8.60
2005,09,26,02,58,8.60
2005,09,26,02,59,8.60
2005,09,26,03,00,8.60
2005,09,26,03,01,8.70
2005,09,26,03,02,8.70
2005,09,26,03,03,8.80
2005,09,26,03,04,8.80
2005,09,26,03,05,8.80
2005,09,26,03,06,8.70
2005,09,26,03,07,8.70
2005,09,26,03,08,8.70
2005,09,26,03,09,8.70
2005,09,26,03,10,8.70
2005,09,26,03,11,8.70
2005,09,26,03,12,8.60
2005,09,26,03,13,8.60
2005,09,26,03,14,8.60
2005,09,26,03,15,8.60
2005,09,26,03,16,8.60
2005,09,26,03,17,8.60
2005,09,26,03,18,8.50
2005,09,26,03,19,8.50
2005,09,26,03,20,8.50
2005,09,26,03,21,8.40
2005,09,26,03,22,8.40
2005,09,26,03,23,8.30
2005,09,26,03,24,8.30
2005,09,26,03,25,8.30
2005,09,26,03,26,8.30
2005,09,26,03,27,8.30
2005,09,26,03,28,8.20
2005,09,26,03,29,8.20
2005,09,26,03,30,8.20
2005,09,26,03,31,8.20
2005,09,26,03,32,8.20
2005,09,26,03,33,8.20
2005,09,26,03,34,8.20
2005,09,26,03,35,8.20
2005,09,26,03,36,8.20
2005,09,26,03,37,8.30
2005,09,26,03,38,8.30
2005,09,26,03,39,8.30
2005,09,26,03,40,8.30
2005,09,26,03,41,8.30
2005,09,26,03,42,8.30
2005,09,26,03,43,8.30
2005,09,26,03,44,8.30
2005,09,26,03,45,8.30
2005,09,26,03,46,8.30
2005,09,26,03,47,8.20
2005,09,26,03,48,8.20
2005,09,26,03,49,8.20
2005,09,26,03,50,8.20
2005,09,26,03,51,8.20
2005,09,26,03,52,8.20
2005,09,26,03,53,8.10
2005,09,26,03,54,8.10
2005,09,26,03,55,8.10
2005,09,26,03,56,8.10
2005,09,26,03,57,8.10
2005,09,26,03,58,8.10
2005,09,26,03,59,8.00
2005,09,26,04,00,8.00
2005,09,26,04,01,8.00
2005,09,26,04,02,8.00
2005,09,26,04,03,8.10
2005,09,26,04,04,8.10
2005,09,26,04,05,8.10
2005,09,26,04,06,8.10
2005,09,26,04,07,8.20
2005,09,26,04,08,8.20
2005,09,26,04,09,8.20
2005,09,26,04,10,8.20
2005,09,26,04,11,8.20
2005,09,26,04,12,8.30
2005,09,26,04,13,8.30
2005,09,26,04,14,8.30
2005,09,26,04,15,8.30
2005,09,26,04,16,8.30
2005,09,26,04,17,8.20
2005,09,26,04,18,8.20
2005,09,26,04,19,8.20
2005,09,26,04,20,8.20
2005,09,26,04,21,8.20
2005,09,26,04,22,8.10
2005,09,26,04,23,8.10
2005,09,26,04,24,8.10
2005,09,26,04,25,8.00
2005,09,26,04,26,8.00
2005,09,26,04,27,8.00
2005,09,26,04,28,8.00
2005,09,26,04,29,8.00
2005,09,26,04,30,8.00
2005,09,26,04,31,8.00
2005,09,26,04,32,8.00
2005,09,26,04,33,8.00
2005,09,26,04,34,8.00
2005,09,26,04,35,8.00
2005,09,26,04,36,8.00
2005,09,26,04,37,8.00
2005,09,26,04,38,8.00
2005,09,26,04,39,8.00
2005,09,26,04,40,8.00
2005,09,26,04,41,8.00
2005,09,26,04,42,8.00
2005,09,26,04,43,8.00
2005,09,26,04,44,8.00
2005,09,26,04,45,8.00
2005,09,26,04,46,8.00
2005,09,26,04,47,8.00
2005,09,26,04,48,8.00
2005,09,26,04,49,8.00
2005,09,26,04,50,8.00
2005,09,26,04,51,8.00
2005,09,26,04,52,7.90
2005,09,26,04,53,7.90
2005,09,26,04,54,7.90
2005,09,26,04,55,7.90
2005,09,26,04,56,7.90
2005,09,26,04,57,7.90
2005,09,26,04,58,7.90
2005,09,26,04,59,7.90
2005,09,26,05,00,7.90
2005,09,26,05,01,7.90
2005,09,26,05,02,7.90
2005,09,26,05,03,7.90
2005,09,26,05,04,7.90
2005,09,26,05,05,7.90
2005,09,26,05,06,7.90
2005,09,26,05,07,7.90
2005,09,26,05,08,7.90
2005,09,26,05,09,7.90
2005,09,26,05,10,7.90
2005,09,26,05,11,7.90
2005,09,26,05,12,7.80
2005,09,26,05,13,7.80
2005,09,26,05,14,7.80
2005,09,26,05,15,7.90
2005,09,26,05,16,7.90
2005,09,26,05,17,7.90
2005,09,26,05,18,7.90
2005,09,26,05,19,7.90
2005,09,26,05,20,7.90
2005,09,26,05,21,7.90
2005,09,26,05,22,7.90
2005,09,26,05,23,7.90
2005,09,26,05,24,7.90
2005,09,26,05,25,7.90
2005,09,26,05,26,7.90
2005,09,26,05,27,7.80
2005,09,26,05,28,7.80
2005,09,26,05,29,7.80
2005,09,26,05,30,7.80
2005,09,26,05,31,7.80
2005,09,26,05,32,7.80
2005,09,26,05,33,7.80
2005,09,26,05,34,7.80
2005,09,26,05,35,7.80
2005,09,26,05,36,7.80
2005,09,26,05,37,7.80
2005,09,26,05,38,7.80
2005,09,26,05,39,7.80
2005,09,26,05,40,7.80
2005,09,26,05,41,7.70
2005,09,26,05,42,7.70
2005,09,26,05,43,7.70
2005,09,26,05,44,7.70
2005,09,26,05,45,7.70
2005,09,26,05,46,7.60
2005,09,26,05,47,7.60
2005,09,26,05,48,7.60
2005,09,26,05,49,7.60
2005,09,26,05,50,7.60
2005,09,26,05,51,7.60
2005,09,26,05,52,7.50
2005,09,26,05,53,7.50
2005,09,26,05,54,7.50
2005,09,26,05,55,7.50
2005,09,26,05,56,7.40
2005,09,26,05,57,7.40
2005,09,26,05,58,7.30
2005,09,26,05,59,7.30
2005,09,26,06,00,7.20
2005,09,26,06,01,7.20
2005,09,26,06,02,7.20
2005,09,26,06,03,7.30
2005,09,26,06,04,7.30
2005,09,26,06,05,7.30
2005,09,26,06,06,7.30
2005,09,26,06,07,7.30
2005,09,26,06,08,7.30
2005,09,26,06,09,7.30
2005,09,26,06,10,7.30
2005,09,26,06,11,7.30
2005,09,26,06,12,7.30
2005,09,26,06,13,7.30
2005,09,26,06,14,7.30
2005,09,26,06,15,7.30
2005,09,26,06,16,7.30
2005,09,26,06,17,7.30
2005,09,26,06,18,7.30
2005,09,26,06,19,7.30
2005,09,26,06,20,7.30
2005,09,26,06,21,7.30
2005,09,26,06,22,7.30
2005,09,26,06,23,7.40
2005,09,26,06,24,7.40
2005,09,26,06,25,7.40
2005,09,26,06,26,7.50
2005,09,26,06,27,7.50
2005,09,26,06,28,7.40
2005,09,26,06,29,7.40
2005,09,26,06,30,7.40
2005,09,26,06,31,7.50
2005,09,26,06,32,7.50
2005,09,26,06,33,7.50
2005,09,26,06,34,7.60
2005,09,26,06,35,7.60
2005,09,26,06,36,7.60
2005,09,26,06,37,7.60
2005,09,26,06,38,7.60
2005,09,26,06,39,7.60
2005,09,26,06,40,7.60
2005,09,26,06,41,7.60
2005,09,26,06,42,7.60
2005,09,26,06,43,7.60
2005,09,26,06,44,7.60
2005,09,26,06,45,7.60
2005,09,26,06,46,7.60
2005,09,26,06,47,7.60
2005,09,26,06,48,7.50
2005,09,26,06,49,7.50
2005,09,26,06,50,7.50
2005,09,26,06,51,7.50
2005,09,26,06,52,7.40
2005,09,26,06,53,7.40
2005,09,26,06,54,7.40
2005,09,26,06,55,7.50
2005,09,26,06,56,7.50
2005,09,26,06,57,7.50
2005,09,26,06,58,7.60
2005,09,26,06,59,7.60
2005,09,26,07,00,7.60
2005,09,26,07,01,7.60
2005,09,26,07,02,7.50
2005,09,26,07,03,7.50
2005,09,26,07,04,7.50
2005,09,26,07,05,7.50
2005,09,26,07,06,7.50
2005,09,26,07,07,7.50
2005,09,26,07,08,7.60
2005,09,26,07,09,7.60
2005,09,26,07,10,7.60
2005,09,26,07,11,7.50
2005,09,26,07,12,7.50
2005,09,26,07,13,7.50
2005,09,26,07,14,7.50
2005,09,26,07,15,7.50
2005,09,26,07,16,7.50
2005,09,26,07,17,7.50
2005,09,26,07,18,7.60
2005,09,26,07,19,7.70
2005,09,26,07,20,7.70
2005,09,26,07,21,7.70
2005,09,26,07,22,7.70
2005,09,26,07,23,7.80
2005,09,26,07,24,7.80
2005,09,26,07,25,7.80
2005,09,26,07,26,7.80
2005,09,26,07,27,7.80
2005,09,26,07,28,7.80
2005,09,26,07,29,7.80
2005,09,26,07,30,7.80
2005,09,26,07,31,7.80
2005,09,26,07,32,7.80
2005,09,26,07,33,7.80
2005,09,26,07,34,7.70
2005,09,26,07,35,7.70
2005,09,26,07,36,7.70
2005,09,26,07,37,7.70
2005,09,26,07,38,7.70
2005,09,26,07,39,7.70
2005,09,26,07,40,7.80
2005,09,26,07,41,7.80
2005,09,26,07,42,7.90
2005,09,26,07,43,8.00
2005,09,26,07,44,8.10
2005,09,26,07,45,8.20
2005,09,26,07,46,8.30
2005,09,26,07,47,8.50
2005,09,26,07,48,8.60
2005,09,26,07,49,8.70
2005,09,26,07,50,8.70
2005,09,26,07,51,8.90
2005,09,26,07,52,9.00
2005,09,26,07,53,9.00
2005,09,26,07,54,9.10
2005,09,26,07,55,9.10
2005,09,26,07,56,9.20
2005,09,26,07,57,9.30
2005,09,26,07,58,9.30
2005,09,26,07,59,9.40
2005,09,26,08,00,9.40
2005,09,26,08,01,9.40
2005,09,26,08,02,9.50
2005,09,26,08,03,9.50
2005,09,26,08,04,9.50
2005,09,26,08,05,9.50
2005,09,26,08,06,9.60
2005,09,26,08,07,9.60
2005,09,26,08,08,9.70
2005,09,26,08,09,9.70
2005,09,26,08,10,9.70
2005,09,26,08,11,9.70
2005,09,26,08,12,9.70
2005,09,26,08,13,9.70
2005,09,26,08,14,9.70
2005,09,26,08,15,9.70
2005,09,26,08,16,9.70
2005,09,26,08,17,9.70
2005,09,26,08,18,9.70
2005,09,26,08,19,9.70
2005,09,26,08,20,9.70
2005,09,26,08,21,9.70
2005,09,26,08,22,9.80
2005,09,26,08,23,9.80
2005,09,26,08,24,9.90
2005,09,26,08,25,9.90
2005,09,26,08,26,9.90
2005,09,26,08,27,9.90
2005,09,26,08,28,9.90
2005,09,26,08,29,9.90
2005,09,26,08,30,9.90
2005,09,26,08,31,9.90
2005,09,26,08,32,9.90
2005,09,26,08,33,9.90
2005,09,26,08,34,9.90
2005,09,26,08,35,9.90
2005,09,26,08,36,9.80
2005,09,26,08,37,9.80
2005,09,26,08,38,9.80
2005,09,26,08,39,9.90
2005,09,26,08,40,9.90
2005,09,26,08,41,9.90
2005,09,26,08,42,9.90
2005,09,26,08,43,9.90
2005,09,26,08,44,9.90
2005,09,26,08,45,9.90
2005,09,26,08,46,9.90
2005,09,26,08,47,10.00
2005,09,26,08,48,10.10
2005,09,26,08,49,10.10
2005,09,26,08,50,10.10
2005,09,26,08,51,10.10
2005,09,26,08,52,10.10
2005,09,26,08,53,10.20
2005,09,26,08,54,10.20
2005,09,26,08,55,10.20
2005,09,26,08,56,10.20
2005,09,26,08,57,10.20
2005,09,26,08,58,10.20
2005,09,26,08,59,10.20
2005,09,26,09,00,10.20
2005,09,26,09,01,10.10
2005,09,26,09,02,10.10
2005,09,26,09,03,10.10
2005,09,26,09,04,10.10
2005,09,26,09,05,10.20
2005,09,26,09,06,10.20
2005,09,26,09,07,10.20
2005,09,26,09,08,10.20
2005,09,26,09,09,10.20
2005,09,26,09,10,10.20
2005,09,26,09,11,10.20
2005,09,26,09,12,10.10
2005,09,26,09,13,10.10
2005,09,26,09,14,10.10
2005,09,26,09,15,10.10
2005,09,26,09,16,10.10
2005,09,26,09,17,10.10
2005,09,26,09,18,10.10
2005,09,26,09,19,10.10
2005,09,26,09,20,10.20
2005,09,26,09,21,10.30
2005,09,26,09,22,10.30
2005,09,26,09,23,10.30
2005,09,26,09,24,10.20
2005,09,26,09,25,10.10
2005,09,26,09,26,10.10
2005,09,26,09,27,10.10
2005,09,26,09,28,10.10
2005,09,26,09,29,10.10
2005,09,26,09,30,9.90
2005,09,26,09,31,9.90
2005,09,26,09,32,9.90
2005,09,26,09,33,9.90
2005,09,26,09,34,10.00
2005,09,26,09,35,10.10
2005,09,26,09,36,10.10
2005,09,26,09,37,10.10
2005,09,26,09,38,10.10
2005,09,26,09,39,10.10
2005,09,26,09,40,10.20
2005,09,26,09,41,10.20
2005,09,26,09,42,10.30
2005,09,26,09,43,10.30
2005,09,26,09,44,10.30
2005,09,26,09,45,10.30
2005,09,26,09,46,10.40
2005,09,26,09,47,10.40
2005,09,26,09,48,10.50
2005,09,26,09,49,10.60
2005,09,26,09,50,10.60
2005,09,26,09,51,10.60
2005,09,26,09,52,10.50
2005,09,26,09,53,10.40
2005,09,26,09,54,10.40
2005,09,26,09,55,10.40
2005,09,26,09,56,10.40
2005,09,26,09,57,10.40
2005,09,26,09,58,10.40
2005,09,26,09,59,10.30
2005,09,26,10,00,10.30
2005,09,26,10,01,10.20
2005,09,26,10,02,10.20
2005,09,26,10,03,10.30
2005,09,26,10,04,10.30
2005,09,26,10,05,10.30
2005,09,26,10,06,10.30
2005,09,26,10,07,10.40
2005,09,26,10,08,10.40
2005,09,26,10,09,10.40
2005,09,26,10,10,10.40
2005,09,26,10,11,10.50
2005,09,26,10,12,10.60
2005,09,26,10,13,10.60
2005,09,26,10,14,10.60
2005,09,26,10,15,10.50
2005,09,26,10,16,10.40
2005,09,26,10,17,10.40
2005,09,26,10,18,10.40
2005,09,26,10,19,10.40
2005,09,26,10,20,10.40
2005,09,26,10,21,10.40
2005,09,26,10,22,10.50
2005,09,26,10,23,10.60
2005,09,26,10,24,10.60
2005,09,26,10,25,10.60
2005,09,26,10,26,10.60
2005,09,26,10,27,10.60
2005,09,26,10,28,10.60
2005,09,26,10,29,10.60
2005,09,26,10,30,10.60
2005,09,26,10,31,10.60
2005,09,26,10,32,10.60
2005,09,26,10,33,10.60
2005,09,26,10,34,10.70
2005,09,26,10,35,10.60
2005,09,26,10,36,10.70
2005,09,26,10,37,10.70
2005,09,26,10,38,10.70
2005,09,26,10,39,10.70
2005,09,26,10,40,10.60
2005,09,26,10,41,10.60
2005,09,26,10,42,10.60
2005,09,26,10,43,10.60
2005,09,26,10,44,10.50
2005,09,26,10,45,10.40
2005,09,26,10,46,10.40
2005,09,26,10,47,10.30
2005,09,26,10,48,10.20
2005,09,26,10,49,10.20
2005,09,26,10,50,10.20
2005,09,26,10,51,10.20
2005,09,26,10,52,10.20
2005,09,26,10,53,10.30
2005,09,26,10,54,10.30
2005,09,26,10,55,10.30
2005,09,26,10,56,10.40
2005,09,26,10,57,10.40
2005,09,26,10,58,10.40
2005,09,26,10,59,10.40
2005,09,26,11,00,10.50
2005,09,26,11,01,10.40
2005,09,26,11,02,10.40
2005,09,26,11,03,10.40
2005,09,26,11,04,10.50
2005,09,26,11,05,10.60
2005,09,26,11,06,10.60
2005,09,26,11,07,10.70
2005,09,26,11,08,10.70
2005,09,26,11,09,10.70
2005,09,26,11,10,10.80
2005,09,26,11,11,10.70
2005,09,26,11,12,10.70
2005,09,26,11,13,10.60
2005,09,26,11,14,10.80
2005,09,26,11,15,10.90
2005,09,26,11,16,10.90
2005,09,26,11,17,10.90
2005,09,26,11,18,10.90
2005,09,26,11,19,10.80
2005,09,26,11,20,10.80
2005,09,26,11,21,10.70
2005,09,26,11,22,10.60
2005,09,26,11,23,10.60
2005,09,26,11,24,10.60
2005,09,26,11,25,10.70
2005,09,26,11,26,10.60
2005,09,26,11,27,10.60
2005,09,26,11,28,10.60
2005,09,26,11,29,10.60
2005,09,26,11,30,10.60
2005,09,26,11,31,10.60
2005,09,26,11,32,10.50
2005,09,26,11,33,10.40
2005,09,26,11,34,10.40
2005,09,26,11,35,10.40
2005,09,26,11,36,10.50
2005,09,26,11,37,10.60
2005,09,26,11,38,10.60
2005,09,26,11,39,10.70
2005,09,26,11,40,10.80
2005,09,26,11,41,10.90
2005,09,26,11,42,10.90
2005,09,26,11,43,11.00
2005,09,26,11,44,11.10
2005,09,26,11,45,11.10
2005,09,26,11,46,11.10
2005,09,26,11,47,11.10
2005,09,26,11,48,11.10
2005,09,26,11,49,11.10
2005,09,26,11,50,11.10
2005,09,26,11,51,11.10
2005,09,26,11,52,11.20
2005,09,26,11,53,11.20
2005,09,26,11,54,11.30
2005,09,26,11,55,11.40
2005,09,26,11,56,11.40
2005,09,26,11,57,11.60
2005,09,26,11,58,11.70
2005,09,26,11,59,11.70
2005,09,26,12,00,11.80
2005,09,26,12,01,11.80
2005,09,26,12,02,11.80
2005,09,26,12,03,11.80
2005,09,26,12,04,11.80
2005,09,26,12,05,11.80
2005,09,26,12,06,11.80
2005,09,26,12,07,11.80
2005,09,26,12,08,11.90
2005,09,26,12,09,12.00
2005,09,26,12,10,12.10
2005,09,26,12,11,12.10
2005,09,26,12,12,12.20
2005,09,26,12,13,12.30
2005,09,26,12,14,12.30
2005,09,26,12,15,12.30
2005,09,26,12,16,12.30
2005,09,26,12,17,12.30
2005,09,26,12,18,12.50
2005,09,26,12,19,12.60
2005,09,26,12,20,12.70
2005,09,26,12,21,12.70
2005,09,26,12,22,12.80
2005,09,26,12,23,12.90
2005,09,26,12,24,13.00
2005,09,26,12,25,13.20
2005,09,26,12,26,13.30
2005,09,26,12,27,13.50
2005,09,26,12,28,13.70
2005,09,26,12,29,13.90
2005,09,26,12,30,14.10
2005,09,26,12,31,14.40
2005,09,26,12,32,14.60
2005,09,26,12,33,14.90
2005,09,26,12,34,15.00
2005,09,26,12,35,15.20
2005,09,26,12,36,15.20
2005,09,26,12,37,15.50
2005,09,26,12,38,15.60
2005,09,26,12,39,15.70
2005,09,26,12,40,15.80
2005,09,26,12,41,16.00
2005,09,26,12,42,16.10
2005,09,26,12,43,16.30
2005,09,26,12,44,16.40
2005,09,26,12,45,16.60
2005,09,26,12,46,16.60
2005,09,26,12,47,16.70
2005,09,26,12,48,16.70
2005,09,26,12,49,16.70
2005,09,26,12,50,16.80
2005,09,26,12,51,16.90
2005,09,26,12,52,16.80
2005,09,26,12,53,16.80
2005,09,26,12,54,16.80
2005,09,26,12,55,16.90
2005,09,26,12,56,17.00
2005,09,26,12,57,17.00
2005,09,26,12,58,17.00
2005,09,26,12,59,17.10
2005,09,26,13,00,17.10
2005,09,26,13,01,17.10
2005,09,26,13,02,17.10
2005,09,26,13,03,17.10
2005,09,26,13,04,17.20
2005,09,26,13,05,17.20
2005,09,26,13,06,17.20
2005,09,26,13,07,17.20
2005,09,26,13,08,17.20
2005,09,26,13,09,17.20
2005,09,26,13,10,17.20
2005,09,26,13,11,17.20
2005,09,26,13,12,17.30
2005,09,26,13,13,17.30
2005,09,26,13,14,17.30
2005,09,26,13,15,17.30
2005,09,26,13,16,17.30
2005,09,26,13,17,17.30
2005,09,26,13,18,17.30
2005,09,26,13,19,17.30
2005,09,26,13,20,17.30
2005,09,26,13,21,17.30
2005,09,26,13,22,17.10
2005,09,26,13,23,17.00
2005,09,26,13,24,16.80
2005,09,26,13,25,16.70
2005,09,26,13,26,16.70
2005,09,26,13,27,16.60
2005,09,26,13,28,16.60
2005,09,26,13,29,16.60
2005,09,26,13,30,16.50
2005,09,26,13,31,16.60
2005,09,26,13,32,16.60
2005,09,26,13,33,16.70
2005,09,26,13,34,16.70
2005,09,26,13,35,16.80
2005,09,26,13,36,16.80
2005,09,26,13,37,16.80
2005,09,26,13,38,16.90
2005,09,26,13,39,16.90
2005,09,26,13,40,17.00
2005,09,26,13,41,17.10
2005,09,26,13,42,17.20
2005,09,26,13,43,17.30
2005,09,26,13,44,17.30
2005,09,26,13,45,17.60
2005,09,26,13,46,18.00
2005,09,26,13,47,18.20
2005,09,26,13,48,18.30
2005,09,26,13,49,18.40
2005,09,26,13,50,18.50
2005,09,26,13,51,18.60
2005,09,26,13,52,18.70
2005,09,26,13,53,18.80
2005,09,26,13,54,18.90
2005,09,26,13,55,18.90
2005,09,26,13,56,18.90
2005,09,26,13,57,18.80
2005,09,26,13,58,18.60
2005,09,26,13,59,18.20
2005,09,26,14,00,18.00
2005,09,26,14,01,17.90
2005,09,26,14,02,17.80
2005,09,26,14,03,17.70
2005,09,26,14,04,17.70
2005,09,26,14,05,17.70
2005,09,26,14,06,17.50
2005,09,26,14,07,17.50
2005,09,26,14,08,17.30
2005,09,26,14,09,17.30
2005,09,26,14,10,17.30
2005,09,26,14,11,17.30
2005,09,26,14,12,17.30
2005,09,26,14,13,17.30
2005,09,26,14,14,17.30
2005,09,26,14,15,17.30
2005,09,26,14,16,17.30
2005,09,26,14,17,17.20
2005,09,26,14,18,17.20
2005,09,26,14,19,17.10
2005,09,26,14,20,17.00
2005,09,26,14,21,17.00
2005,09,26,14,22,17.00
2005,09,26,14,23,17.00
2005,09,26,14,24,17.10
2005,09,26,14,25,17.10
2005,09,26,14,26,17.10
2005,09,26,14,27,17.20
2005,09,26,14,28,17.30
2005,09,26,14,29,17.30
2005,09,26,14,30,17.30
2005,09,26,14,31,17.30
2005,09,26,14,32,17.30
2005,09,26,14,33,17.30
2005,09,26,14,34,17.30
2005,09,26,14,35,17.30
2005,09,26,14,36,17.40
2005,09,26,14,37,17.50
2005,09,26,14,38,17.70
2005,09,26,14,39,17.80
2005,09,26,14,40,17.90
2005,09,26,14,41,18.00
2005,09,26,14,42,18.10
2005,09,26,14,43,18.20
2005,09,26,14,44,18.30
2005,09,26,14,45,18.30
2005,09,26,14,46,18.40
2005,09,26,14,47,18.40
2005,09,26,14,48,18.50
2005,09,26,14,49,18.50
2005,09,26,14,50,18.40
2005,09,26,14,51,18.30
2005,09,26,14,52,18.40
2005,09,26,14,53,18.40
2005,09,26,14,54,18.40
2005,09,26,14,55,18.40
2005,09,26,14,56,18.40
2005,09,26,14,57,18.40
2005,09,26,14,58,18.40
2005,09,26,14,59,18.40
2005,09,26,15,00,18.30
2005,09,26,15,01,18.20
2005,09,26,15,02,18.20
2005,09,26,15,03,18.20
2005,09,26,15,04,18.20
2005,09,26,15,05,18.20
2005,09,26,15,06,18.20
2005,09,26,15,07,18.20
2005,09,26,15,08,18.10
2005,09,26,15,09,18.10
2005,09,26,15,10,18.10
2005,09,26,15,11,18.10
2005,09,26,15,12,18.00
2005,09,26,15,13,17.90
2005,09,26,15,14,17.90
2005,09,26,15,15,17.90
2005,09,26,15,16,17.90
2005,09,26,15,17,18.10
2005,09,26,15,18,18.10
2005,09,26,15,19,18.10
2005,09,26,15,20,18.10
2005,09,26,15,21,18.10
2005,09,26,15,22,18.10
2005,09,26,15,23,18.10
2005,09,26,15,24,18.00
2005,09,26,15,25,17.90
2005,09,26,15,26,17.90
2005,09,26,15,27,17.90
2005,09,26,15,28,17.90
2005,09,26,15,29,17.90
2005,09,26,15,30,17.80
2005,09,26,15,31,17.80
2005,09,26,15,32,17.80
2005,09,26,15,33,17.80
2005,09,26,15,34,17.90
2005,09,26,15,35,17.90
2005,09,26,15,36,17.90
2005,09,26,15,37,18.00
2005,09,26,15,38,18.20
2005,09,26,15,39,18.20
2005,09,26,15,40,18.20
2005,09,26,15,41,18.30
2005,09,26,15,42,18.40
2005,09,26,15,43,18.50
2005,09,26,15,44,18.50
2005,09,26,15,45,18.60
2005,09,26,15,46,18.60
2005,09,26,15,47,18.70
2005,09,26,15,48,18.70
2005,09,26,15,49,18.70
2005,09,26,15,50,18.60
2005,09,26,15,51,18.40
2005,09,26,15,52,18.30
2005,09,26,15,53,18.20
2005,09,26,15,54,18.10
2005,09,26,15,55,18.10
2005,09,26,15,56,18.20
2005,09,26,15,57,18.20
2005,09,26,15,58,18.10
2005,09,26,15,59,18.00
2005,09,26,16,00,17.90
2005,09,26,16,01,17.90
2005,09,26,16,02,17.90
2005,09,26,16,03,17.90
2005,09,26,16,04,18.10
2005,09,26,16,05,18.20
2005,09,26,16,06,18.30
2005,09,26,16,07,18.40
2005,09,26,16,08,18.40
2005,09,26,16,09,18.40
2005,09,26,16,10,18.50
2005,09,26,16,11,18.50
2005,09,26,16,12,18.50
2005,09,26,16,13,18.50
2005,09,26,16,14,18.50
2005,09,26,16,15,18.50
2005,09,26,16,16,18.50
2005,09,26,16,17,18.50
2005,09,26,16,18,18.40
2005,09,26,16,19,18.30
2005,09,26,16,20,18.20
2005,09,26,16,21,18.20
2005,09,26,16,22,18.20
2005,09,26,16,23,18.20
2005,09,26,16,24,18.20
2005,09,26,16,25,18.20
2005,09,26,16,26,18.20
2005,09,26,16,27,18.20
2005,09,26,16,28,18.20
2005,09,26,16,29,18.20
2005,09,26,16,30,18.20
2005,09,26,16,31,18.20
2005,09,26,16,32,18.10
2005,09,26,16,33,18.10
2005,09,26,16,34,18.10
2005,09,26,16,35,18.10
2005,09,26,16,36,18.10
2005,09,26,16,37,18.10
2005,09,26,16,38,18.10
2005,09,26,16,39,18.10
2005,09,26,16,40,18.10
2005,09,26,16,41,18.00
2005,09,26,16,42,17.90
2005,09,26,16,43,17.90
2005,09,26,16,44,17.90
2005,09,26,16,45,18.00
2005,09,26,16,46,18.10
2005,09,26,16,47,18.10
2005,09,26,16,48,18.10
2005,09,26,16,49,18.20
2005,09,26,16,50,18.10
2005,09,26,16,51,18.10
2005,09,26,16,52,18.10
2005,09,26,16,53,18.10
2005,09,26,16,54,18.00
2005,09,26,16,55,18.10
2005,09,26,16,56,18.10
2005,09,26,16,57,18.10
2005,09,26,16,58,18.00
2005,09,26,16,59,17.90
2005,09,26,17,00,18.00
2005,09,26,17,01,18.00
2005,09,26,17,02,18.10
2005,09,26,17,03,18.10
2005,09,26,17,04,17.90
2005,09,26,17,05,17.90
2005,09,26,17,06,17.90
2005,09,26,17,07,17.90
2005,09,26,17,08,18.10
2005,09,26,17,09,18.10
2005,09,26,17,10,18.10
2005,09,26,17,11,18.10
2005,09,26,17,12,18.20
2005,09,26,17,13,18.30
2005,09,26,17,14,18.30
2005,09,26,17,15,18.40
2005,09,26,17,16,18.40
2005,09,26,17,17,18.50
2005,09,26,17,18,18.50
2005,09,26,17,19,18.60
2005,09,26,17,20,18.60
2005,09,26,17,21,18.60
2005,09,26,17,22,18.60
2005,09,26,17,23,18.70
2005,09,26,17,24,18.60
2005,09,26,17,25,18.60
2005,09,26,17,26,18.60
2005,09,26,17,27,18.50
2005,09,26,17,28,18.40
2005,09,26,17,29,18.40
2005,09,26,17,30,18.30
2005,09,26,17,31,18.30
2005,09,26,17,32,18.30
2005,09,26,17,33,18.30
2005,09,26,17,34,18.30
2005,09,26,17,35,18.30
2005,09,26,17,36,18.30
2005,09,26,17,37,18.20
2005,09,26,17,38,18.20
2005,09,26,17,39,18.10
2005,09,26,17,40,18.00
2005,09,26,17,41,17.90
2005,09,26,17,42,17.70